Location: Alphen
(52.1351°N, 4.6549°E)
Time: 01:56:07
(UTC+00:00)

Cosmos 1943 Rocket - Pass Details

Date: 27 January 2021
Orbit: 810 x 845 km, 71.0° (Epoch: 26 February)

Event Time Altitude Azimuth Distance (km) Brightness Sun altitude
Exits shadow 06:32:34 - 312° (NW) 2,629 4.2 -8.7°
Reaches altitude 10° 06:33:04 10° 310° (NW) 2,472 4.0 -8.7°
Maximum altitude 06:37:33 25° 257° (WSW) 1,658 3.3 -8.0°
Drops below altitude 10° 06:42:02 10° 204° (SSW) 2,463 4.6 -7.4°
Sets 06:44:52 0° 192° (SSW) 3,393 5.5 -7.0°
